TimePDT,TemperatureF,Dew PointF,Humidity,Sea Level PressureIn,VisibilityMPH,Wind Direction,Wind SpeedMPH,Gust SpeedMPH,PrecipitationIn,Events,Conditions,WindDirDegrees,DateUTC
12:53 AM,39.9,36.0,86,30.18,10.0,NE,4.6,-,N/A,,Clear,50,2013-03-11 07:53:00
1:53 AM,37.0,34.0,89,30.18,10.0,Calm,Calm,-,N/A,,Clear,0,2013-03-11 08:53:00
2:53 AM,37.0,34.0,89,30.17,10.0,Calm,Calm,-,N/A,,Clear,0,2013-03-11 09:53:00
3:53 AM,36.0,33.1,89,30.14,10.0,Calm,Calm,-,N/A,,Clear,0,2013-03-11 10:53:00
4:53 AM,35.1,32.0,89,30.14,10.0,ESE,4.6,-,N/A,,Clear,120,2013-03-11 11:53:00
5:53 AM,32.0,30.9,96,30.15,10.0,Calm,Calm,-,N/A,,Clear,0,2013-03-11 12:53:00
6:53 AM,32.0,30.0,92,30.16,10.0,ESE,3.5,-,N/A,,Clear,120,2013-03-11 13:53:00
7:53 AM,37.9,33.1,83,30.17,10.0,ENE,3.5,-,N/A,,Clear,60,2013-03-11 14:53:00
8:53 AM,48.0,37.0,66,30.18,10.0,Calm,Calm,-,N/A,,Clear,0,2013-03-11 15:53:00
9:53 AM,61.0,33.1,35,30.17,10.0,Calm,Calm,-,N/A,,Clear,0,2013-03-11 16:53:00
10:53 AM,68.0,24.1,19,30.15,10.0,Calm,Calm,-,N/A,,Clear,0,2013-03-11 17:53:00
11:53 AM,72.0,36.0,27,30.14,10.0,NW,8.1,-,N/A,,Clear,310,2013-03-11 18:53:00
12:53 PM,72.0,37.9,29,30.12,10.0,West,9.2,-,N/A,,Clear,280,2013-03-11 19:53:00
1:53 PM,72.0,37.9,29,30.09,10.0,WSW,5.8,-,N/A,,Clear,250,2013-03-11 20:53:00
2:53 PM,73.9,39.0,28,30.07,10.0,NW,8.1,-,N/A,,Clear,310,2013-03-11 21:53:00
3:53 PM,72.0,41.0,33,30.07,10.0,West,9.2,-,N/A,,Clear,280,2013-03-11 22:53:00
4:53 PM,70.0,39.9,33,30.05,10.0,West,6.9,-,N/A,,Clear,280,2013-03-11 23:53:00
5:53 PM,68.0,43.0,40,30.05,10.0,NW,8.1,-,N/A,,Clear,310,2013-03-12 00:53:00
6:53 PM,57.0,45.0,64,30.06,10.0,West,5.8,-,N/A,,Clear,280,2013-03-12 01:53:00
7:53 PM,53.1,44.1,71,30.07,10.0,WNW,3.5,-,N/A,,Clear,300,2013-03-12 02:53:00
8:53 PM,52.0,41.0,66,30.09,10.0,Calm,Calm,-,N/A,,Clear,0,2013-03-12 03:53:00
9:53 PM,44.1,39.0,82,30.09,10.0,Calm,Calm,-,N/A,,Clear,0,2013-03-12 04:53:00
10:53 PM,44.1,41.0,89,30.09,10.0,Calm,Calm,-,N/A,,Clear,0,2013-03-12 05:53:00
11:53 PM,42.1,39.0,89,30.08,10.0,Calm,Calm,-,N/A,,Clear,0,2013-03-12 06:53:00